Regional Weather Roundup
Issued by NWS Jackson, KY

Home | Current Version | Previous Version | Text Only | Print | Product List | Glossary Off
Versions: 1 2 3 4 5 6 7 8 9 10 11 12 13 14 15 16 17 18 19 20 21 22 23 24 25 26 27 28 29 30 31 32 33 34 35 36 37 38 39 40 41 42 43 44 45 46 47 48 49 50

000
ASUS43 KJKL 022010
RWRJKL

EAST KENTUCKY HOURLY WEATHER ROUNDUP
NATIONAL WEATHER SERVICE JACKSON KY
400 PM EDT WED SEP 02 2015

NOTE: "FAIR" INDICATES FEW OR NO CLOUDS BELOW 12,000 FEET WITH
NO SIGNIFICANT WEATHER AND/OR OBSTRUCTIONS TO VISIBILITY.

* THESE REPORTS ARE NOT UNDER NWS QUALITY CONTROL AND MAY NOT
  REPORT WEATHER SUCH AS PRECIPITATION AND FOG.

KYZ079-080-083-085-087-088-110-112-115-119-120-022100
...EASTERN KENTUCKY...

CITY           SKY/WX    TMP DP  RH WIND       PRES   REMARKS
JACKSON        MOSUNNY   88  65  46 VRB3      30.09F HX  90
LONDON         MOSUNNY   88  58  36 CALM      30.08F
SOMERSET*      SUNNY     86  59  39 SW3       30.08F
MONTICELLO*    SUNNY     91  66  43 N3        30.10F HX  93
MIDDLESBORO*   SUNNY     88  68  50 NE8       30.08F HX  91
HARLAN APT*      N/A     88  57  35 MISG      30.10F
HAZARD APT*    CLEAR     88  61  40 CALM      30.09F
BLACK MTN*       N/A     75  63  64 N7          N/A
PIKEVILLE APT* SUNNY     86  63  45 W6        30.09F
BIG SANDY*     PTCLDY    88  65  45 SW3       30.08F
MOREHEAD APT*  MOCLDY    88  64  45 NW6       30.09F
$$

KYZ035-036-041-042-044-050-067-078-099-022100
...CENTRAL KENTUCKY...

CITY           SKY/WX    TMP DP  RH WIND       PRES   REMARKS
MT STERLING*   PTSUNNY   90  68  48 W5        30.08F HX  93
FLEMING/MASON* MOSUNNY   90  66  45 W5        30.07F HX  92
DANVILLE*      MOSUNNY   88  63  42 CALM      30.09F
RICHMOND*      SUNNY     90  57  33 CALM      30.08F
LEXINGTON      SUNNY     90  64  42 VRB5      30.08F HX  91
FRANKFORT      SUNNY     88  65  46 VRB5      30.06F HX  90
$$

KYZ091>093-OHZ055-061-077-WVZ005-015-034-035-042-022100
...SOUTHERN OHIO/WEST VIRGINIA...

CITY           SKY/WX    TMP DP  RH WIND       PRES   REMARKS
COVINGTON      MOSUNNY   89  67  47 W6        30.06F HX  92
COLUMBUS       PTSUNNY   81  68  65 N26G37    30.04F THUNDER
DAYTON         MOSUNNY   88  67  49 W12       30.06F THUNDER HX  91
WILMINGTON     LGT RAIN  73  68  84 SW7       30.06F
HUNTINGTON     LGT RAIN  78  67  68 N10       30.06S
CHARLESTON     MOSUNNY   88  65  46 N10       30.04F HX  90
PINEVILLE*     SUNNY     81  71  70 MISG      30.14F
BECKLEY        PTSUNNY   82  62  50 NW7       30.13F
BLUEFIELD      MOSUNNY   83  57  41 NW8       30.16F
$$

VAZ002-007-008-TNZ017-027-036-066-071-022100
...SOUTHWEST VIRGINIA/EAST TENNESSEE...

CITY           SKY/WX    TMP DP  RH WIND       PRES   REMARKS
WISE*          MOSUNNY   81  59  47 N8        30.17F
JONESVILLE*    CLEAR     90  63  40 NW3       30.10F HX  90
ABINGDON*      MOSUNNY   86  59  39 NW5       30.11F
BRISTOL        PTSUNNY   91  63  39 N6        30.07F HX  92
KNOXVILLE      PTSUNNY   91  63  39 N6        30.04F HX  92
OAK RIDGE      PTSUNNY   89  67  47 CALM      30.07F HX  92
CROSSVILLE     MOSUNNY   84  63  49 N3        30.12F
NASHVILLE      PTSUNNY   92  63  38 E8        30.05F HX  93
$$

...KEY TO REMARKS...
VSB - VISIBILITY IN MILES
WCI - WIND CHILL INDEX
HX  - HEAT INDEX

$$


USA.gov is the U.S. government's official web portal to all federal, state and local government web resources and services.